Change the Weather History Date:

Tuesday, January 18, 2011

  Actual Average Record
Temperature  
Mean Temperature 68 °F 72 °F  
Max Temperature 75 °F 78 °F 85 °F (1979)
Min Temperature 61 °F 65 °F 53 °F (1969)
Degree Days  
Heating Degree Days 0 0  
Month to date heating degree days 0 0  
Since 1 July heating degree days 0 0  
Cooling Degree Days 3 7  
Month to date cooling degree days 113 126  
Year to date cooling degree days 113 126  
Growing Degree Days 18 (Base 50)    
Moisture  
Dew Point 61 °F    
Average Humidity 77    
Maximum Humidity 90    
Minimum Humidity 64    
Precipitation  
Precipitation 0.00 in 0.11 in 5.08 in (1957)
Month to date precipitation 3.85 2.24  
Year to date precipitation 3.85 2.24  
Snow  
Snow 0.00 in - - ()
Month to date snowfall 0.0  
Since 1 July snowfall 0.0  
Snow Depth 0.00 in    
Sea Level Pressure  
Sea Level Pressure 29.94 in    
Wind  
Wind Speed 4 mph (West)    
Max Wind Speed 9 mph    
Max Gust Speed 12 mph    
Visibility 10 miles    
Events Rain    
T = Trace of Precipitation, MM = Missing Value Source: NWS Daily Summary

Daily Weather History Graph

Daily Weather History Graph

Search for Another Location

Airport or City:

Trip Planner

Search our weather history database for the weather conditions in past years. The results will help you decide how hot, cold, wet, or windy it might be!

Date:

Astronomy

Jan. 18, 2011 Rise Set
Actual Time 7:18 AM HST 6:17 PM HST
Civil Twilight 6:54 AM HST 6:41 PM HST
Nautical Twilight 6:27 AM HST 7:08 PM HST
Astronomical Twilight 6:00 AM HST 7:35 PM HST
Moon 5:30 PM HST (1/18) 6:15 AM HST (1/18)
Length of Visible Light 11h 46m
Length of Day
10h 58m
Waxing Gibbous, 99% of the Moon is Illuminated
Jan 18
Waxing Gibbous
Jan 19
Full
Jan 26
Last Quarter
Feb 2
New
Feb 10
First Quarter

Hourly Weather History & Observations

Time (HST) Temp. Dew Point Humidity Pressure Visibility Wind Dir Wind Speed Gust Speed Precip Events Conditions
12:53 AM 62.1 °F 57.9 °F 86% 29.93 in 10.0 mi WNW 6.9 mph - N/A   Clear
1:53 AM 63.0 °F 57.9 °F 84% 29.92 in 10.0 mi West 8.1 mph - N/A   Clear
2:53 AM 63.0 °F 57.9 °F 84% 29.89 in 10.0 mi West 5.8 mph - N/A   Clear
3:53 AM 64.0 °F 57.9 °F 80% 29.91 in 10.0 mi West 8.1 mph - N/A   Clear
4:53 AM 64.0 °F 59.0 °F 84% 29.92 in 10.0 mi WNW 6.9 mph - N/A   Clear
5:53 AM 64.0 °F 59.0 °F 84% 29.90 in 10.0 mi West 6.9 mph - N/A   Clear
6:53 AM 63.0 °F 59.0 °F 87% 29.93 in 10.0 mi WNW 5.8 mph - N/A   Clear
7:53 AM 64.0 °F 60.1 °F 87% 29.95 in 10.0 mi West 5.8 mph - N/A   Clear
8:53 AM 66.0 °F 60.1 °F 81% 29.96 in 10.0 mi Calm Calm - N/A   Clear
9:53 AM 69.1 °F 61.0 °F 75% 29.97 in 10.0 mi Calm Calm - N/A   Clear
10:53 AM 72.0 °F 60.1 °F 66% 29.98 in 10.0 mi West 3.5 mph - N/A   Partly Cloudy
11:53 AM 73.9 °F 61.0 °F 64% 29.95 in 10.0 mi Calm Calm - N/A   Clear
12:53 PM 75.0 °F 62.1 °F 64% 29.94 in 10.0 mi Calm Calm - N/A   Clear
12:55 PM 73.4 °F 62.6 °F 69% 29.94 in 10.0 mi Calm Calm - N/A   Mostly Cloudy
1:53 PM 73.9 °F 62.1 °F 66% 29.92 in 10.0 mi Calm Calm - N/A   Scattered Clouds
2:53 PM 73.9 °F 62.1 °F 66% 29.91 in 10.0 mi ESE 5.8 mph - N/A   Scattered Clouds
3:53 PM 73.0 °F 63.0 °F 71% 29.91 in 10.0 mi SSE 8.1 mph - N/A   Partly Cloudy
4:53 PM 73.0 °F 63.0 °F 71% 29.91 in 10.0 mi South 6.9 mph - N/A   Clear
5:53 PM 71.1 °F 63.0 °F 75% 29.92 in 10.0 mi South 3.5 mph - N/A   Scattered Clouds
6:53 PM 71.1 °F 64.0 °F 78% 29.94 in 10.0 mi WNW 4.6 mph - N/A   Overcast
7:53 PM 70.0 °F 64.0 °F 81% 29.96 in 10.0 mi West 5.8 mph - N/A   Overcast
8:53 PM 69.1 °F 64.9 °F 87% 29.97 in 10.0 mi WNW 8.1 mph - N/A   Mostly Cloudy
9:53 PM 68.0 °F 64.0 °F 87% 29.97 in 10.0 mi WSW 3.5 mph - N/A   Overcast
10:50 PM 68.0 °F 62.6 °F 83% 30.00 in 10.0 mi WNW 6.9 mph - N/A   Overcast
10:53 PM 68.0 °F 63.0 °F 84% 29.99 in 10.0 mi West 6.9 mph - N/A   Overcast
11:10 PM 68.0 °F 62.6 °F 83% 29.99 in 10.0 mi West 5.8 mph - 0.00 in Rain Light Rain
11:53 PM 66.9 °F 63.0 °F 87% 29.98 in 10.0 mi West 6.9 mph - 0.00 in   Overcast